Regional Weather Roundup
Issued by NWS Pendleton, OR

Home | Current Version | Previous Version | Text Only | Print | Product List | Glossary On
Versions: 1 2 3 4 5 6 7 8 9 10 11 12 13 14 15 16 17 18 19 20 21 22 23 24 25 26 27 28 29 30 31 32 33 34 35 36 37 38 39 40 41 42 43 44 45 46 47 48 49 50
000
ASUS46 KPDT 012304
RWRPDT
PENDLETON REGIONAL WEATHER ROUNDUP
NATIONAL WEATHER SERVICE PENDLETON OREGON
400 PM PDT TUE SEP 1 2015

NOTE: FAIR INDICATES FEW OR NO CLOUDS BELOW 12,000 FEET WITH NO
SIGNIFICANT WEATHER AND/OR OBSTRUCTIONS TO VISIBILITY.

# INDICATES UNOFFICIAL STATION AND DATA

WAZ520-020010-
EAST SLOPES OF WASHINGTON CASCADES

CITY            SKY/WX      TMP DP  RH  WIND    PRES   REMARKS
#BULLFROG       N/A         67  51  56  S5      N/A
#BULLFROG 2SW   N/A         62  50  65  W3      27.43F
#BUMPING DAM    N/A         60  N/A N/A CALM    N/A
#CLE ELUM HS    N/A         66  49  54  SW3     29.77F
#CLE ELUM LAKE  N/A         63  50  62  CALM    29.72F
#CLIFFDEL 2NW   N/A         66  43  43  W2      N/A
#EASTON DOT     N/A         62  44  52  N5      N/A
#ELK HTS DOT    N/A         67  67  100 SW7     N/A
#GLENWOOD       N/A         70  53  55  W2      29.75F
#MANASTASH CYN  N/A         69  42  37  E1      29.79F
#NELSON         N/A         65  53  65  CALM    29.75F
#NELSON 3SW     N/A         61  52  72  CALM    29.95F
#NILE           N/A         71  43  36  NE7     29.01F
#PEOH POINT     N/A         58  48  69  W2      N/A
#RONALD 2NW     N/A         65  46  50  W1      29.71F
#SNOWDEN        N/A         66  33  29  NW3     N/A
#SOUTH BLEWITT  N/A         69  44  40  CALM    N/A
#TEANAWAY 4NE   N/A         69  51  53  W2      N/A
#TROUT LAKE 1NE N/A         68  51  55  N6      29.78F
$$

WAZ521-020010-
SIMCOE HIGHLANDS

CITY            SKY/WX      TMP DP  RH  WIND    PRES   REMARKS
#BICKLETON HS   N/A         69  38  32  W8      N/A
#SATUS PASS DOT N/A         71  39  31  CALM    N/A
#CENTERVILLE 4W N/A         72  47  41  CALM    29.59F
#CENTERVILLE 1SWN/A         72  48  43  W17     29.71F
#GOLDENDALE     N/A         72  45  38  W14     N/A
#GOLDENDALE 1NE N/A         72  34  25  SW5     N/A
#GOLDENDALE 5WNWN/A         71  49  46  SW18    29.73F
#GOODNOE HILLS  N/A         77  48  36  NW17G26 N/A
#LYLE 6NE       N/A         72  49  44  W12     29.73F
$$

WAZ026-020010-
KITTITAS VALLEY

CITY            SKY/WX      TMP DP  RH  WIND    PRES   REMARKS
ELLENSBURG AP   MOCLDY      78  43  29  NW6     29.76F
#ELLENSBURG CWU N/A         77  46  33  CALM    29.68S
#ELLENSBURG 3NE N/A         73  47  40  N6      29.77F
#ELLENSBURG 1E  N/A         74  45  35  CALM    N/A
#KITTITAS 4N    N/A         74  46  37  CALM    29.78F
#KITTITAS 3S    N/A         71  54  55  CALM    29.69F
#MANASTASH RDG  N/A         72  72  100 N2      N/A
#ROCKY CYN DOT  N/A         75  47  37  W15     N/A
#RYEGRASS DOT   N/A         71  44  38  W6      N/A
#THORP 6N       N/A         66  49  54  W17G26  29.74F
$$

WAZ027-020010-
YAKIMA VALLEY

CITY            SKY/WX      TMP DP  RH  WIND    PRES   REMARKS
SUNNYSIDE AP    MOCLDY      74  52  46  N3      29.74F
YAKIMA AIRPORT  MOCLDY      80  47  31  SE6     29.74F
YAKIMA-VAGABOND SUNNY       76  42  30  SW6     29.75F
#DONALD 2NE     N/A         82  25  12  CALM    28.59F
#GRANDVIEW      N/A         76  50  40  CALM    29.72F
#MABTON         N/A         77  51  40  N5      29.72F
#NACHES 2SW     N/A         76  54  46  S1      29.78F
#PARKER DOT     N/A         81  46  29  N2      N/A
#SELAH 8E       N/A         76  42  30  W7      N/A
#TERRACE HTS    N/A         78  48  35  CALM    29.67F
#TOPPENISH      N/A         77  51  40  CALM    29.63F
#I82 S UMTANUM RN/A         75  48  38  SW5     N/A
#UNION GAP DOT  N/A         78  45  31  S5      N/A
#WAPATO 4NE     N/A         82  25  12  CALM    28.59F
#W YAKIMA       N/A         75  49  40  SE2     29.70F
#WHITE SWAN 5E  N/A         78  49  36  SW9     29.70F
#WILEY CITY 3W  N/A         78  40  26  CALM    29.72F
#ZILLAH DOT     N/A         79  46  31  E1      N/A
$$

WAZ028-020010-
LOWER COLUMBIA BASIN...WASHINGTON

CITY            SKY/WX      TMP DP  RH  WIND    PRES   REMARKS
PASCO           MOCLDY      83  43  24  W10     29.73F
#BENTON CITY    N/A         80  47  31  S5      29.60F
#CONNELL 5N     N/A         76  50  40  SW5     29.72F
#CONNELL 5NW    N/A         75  52  45  SW5     29.69F
#ELTOPIA 6NW    N/A         77  54  45  SW1     28.72F
#KAHLOTUS       N/A         77  45  32  W10     29.71F
#KENNEWICK      N/A         62  50  65  W3      27.43F
#KENNEWICK 3S   N/A         78  43  29  S7      29.72F
#PASCO-BROADMOORN/A         83  47  28  SW5     29.59F
#PATERSON       N/A         81  47  30  W14     29.69F
#PROSSER DOT    N/A         80  46  30  W8      N/A
#PROSSER        N/A         78  45  31  N6      29.70F
#SAGEMOOR 2W    N/A         79  50  36  CALM    29.56F
#TOUCHET 2S     N/A         82  50  33  N2      29.69F
#WEST PASCO     N/A         81  51  35  S2      29.67F
$$

WAZ029-020010-
FOOTHILLS OF THE BLUES...WASHINGTON

CITY            SKY/WX      TMP DP  RH  WIND    PRES   REMARKS
WALLA WALLA AP  PTCLDY      81  41  24  W12     29.76F
#DAYTON SCHOOL  N/A         78  39  25  E3      29.77F
#LOWDEN 2SE     N/A         81  50  34  W7      29.69F
#PLEASANT VIEW 1N/A         78  42  28  SW6     29.75F
#PRESCOTT       N/A         81  44  27  W3      29.70F
#SUDBURY        N/A         81  N/A N/A CALM    N/A
#WHITMAN COLLEGEN/A         79  46  31  W12     29.76F
#WAITSBURG 8N   N/A         78  23  13  S14     29.59F
#WALLA WALLA U  N/A         82  47  29  CALM    29.70F
#WHITMAN MISSIONN/A         82  48  31  W3      29.71F
$$

WAZ030-020010-
BLUE MOUNTAINS...WASHINGTON

CITY            SKY/WX      TMP DP  RH  WIND    PRES   REMARKS
#DIXIE 5SE      N/A         70  42  36  NW7     29.77F
#SKI BLUEWOOD   N/A         72  38  29  N10     29.86F
$$

ORZ009-041-WAZ024-020010-
COLUMBIA RIVER GORGE

CITY            SKY/WX      TMP DP  RH  WIND    PRES   REMARKS
THE DALLES AP   CLOUDY      79  48  34  NW21G30 29.75F
#ARLINGTON AIRPON/A         78  49  36  W17     30.10R
#MARYHILL       N/A         76  45  33  CALM    N/A
#MOSIER 1S      N/A         73  39  29  NW10    29.81S

$$

ORZ510-020010-
NORTH CENTRAL OREGON

CITY            SKY/WX      TMP DP  RH  WIND    PRES   REMARKS
#CHENOWITH 1W   N/A         70  48  46  W26     N/A
#DUFUR 9E       N/A         65  48  54  N16G25  29.83S
#GRASS VALLEY 1SN/A         70  49  47  NW15    29.79S
#MAUPIN SCHOOL  N/A         79  51  38  N6      29.77F
#MORO SCHOOL    N/A         70  55  59  NW13    29.82F
#SHANIKO 4NW    N/A         72  37  28  W9      29.87
#TYGH VALLEY 2NEN/A         78  49  36  N10     29.72F
#WAPANITIA AIRPON/A         77  46  33  NW7     29.74F
#WASCO 5NE      N/A         74  49  41  W8      29.75F
$$

ORZ511-020010-
CENTRAL OREGON

CITY            SKY/WX      TMP DP  RH  WIND    PRES   REMARKS
BEND AIRPORT    SUNNY       81  27  14  NW7     29.83F
PRINEVILLE AP   SUNNY       81  30  16  W10     29.82F
REDMOND AIRPORT SUNNY       83  30  15  N10     29.81F
#BEND 1SW       N/A         79  27  15  N3      N/A
#BEND-AWBREY    N/A         82  32  16  NW3     29.71F
#BEND-KIM LN    N/A         82  33  17  NW2     29.81F
#CULVER         N/A         79  26  14  W8      29.78F
#LAKE BILLY CHINN/A         77   1   5  NW7     29.85S
#MADRAS         N/A         79  36  21  N7      N/A
#POWELL BUTTE   N/A         79  41  26  NE7     29.48F
#PRINEVILLE 3N  N/A         79  39  24  W8      29.67F
#WARM SPRINGS   N/A         83  45  26  NW2     29.74F

$$


ORZ509-020010-
EAST SLOPES OF OREGON CASCADES

CITY            SKY/WX      TMP DP  RH  WIND    PRES   REMARKS
#CAMP SHERMAN   N/A         75  32  21  VRB6    29.75R
#LA PINE 4NW    N/A         77  37  24  N3      29.80F
#SISTERS AIRPOR N/A         76  46  34  N13G26  30.17S
#SISTERS 3N     N/A         76  33  21  NW6     29.87S
#SUNRIVER       N/A         78  34  20  NW3     29.63F
#TUMALO 3W      N/A         78  21  12  SW10    29.62F

$$

ORZ044-020010-
LOWER COLUMBIA BASIN...OREGON

CITY            SKY/WX      TMP DP  RH  WIND    PRES   REMARKS
HERMISTON       PTCLDY      83  45  26  W10     29.73F
#BOARDMAN SCHOOLN/A         82  48  31  W7      29.73F
#ECHO 8SW       N/A         81  47  30  W7      29.75F
#IONE SCHOOL    N/A         78  45  31  NW7     29.73F
#IRRIGON 4NW    N/A         81  47  30  S12     N/A
#UMATILLA SCHOOLN/A         82  57  43  CALM    29.77F
#UMATILLA       N/A         82  46  28  SW7     29.65F
$$

ORZ507-020010-
NORTHERN FOOTHILLS OF THE BLUES

CITY            SKY/WX      TMP DP  RH  WIND    PRES   REMARKS
PENDLETON AIRPT SUNNY       80  43  27  NW9     29.76F
#ADAMS 3WNW     N/A         79  45  30  W3      29.70F
#ATHENA         N/A         81  45  28  CALM    29.73F
#CAYUSE         N/A         78  47  34  W5      29.71F
#HELIX SCHOOL   N/A         79  45  30  W5      29.72F
#HELIX 3N       N/A         77  44  31  NW8     29.77F
#HELIX 6SW      N/A         77  46  33  W6      29.78F
#HOLDMAN 5SE    N/A         78  47  34  W8      29.78F
#HOLDMAN 6E     N/A         77  46  33  E7      29.54F
#M-F GROVE ELEM N/A         80  41  25  CALM    29.75F
#M-FREEWATER 5SEN/A         80  49  34  W2      29.76F
#PENDLETON DNTN N/A         84  44  25  NW2     29.78F
#PDT AQUATIC CTRN/A         83  51  33  W7      29.74S
#PDT SUNRIDGE   N/A         81  47  30  W3      29.76F
#PENDLETON 7NW  N/A         78  53  42  CALM    32.07S
#TUTUILLA       N/A         79  46  31  CALM    29.73F
#UMAPINE 2E     N/A         82  47  29  NW2     29.71F
#WESTON SCHOOL  N/A         77  37  24  N6      29.70F

$$

ORZ508-020010-
SOUTHERN FOOTHILLS OF THE BLUES

CITY            SKY/WX      TMP DP  RH  WIND    PRES   REMARKS
#AJAX           N/A         72  41  33  NW8     29.77F
#CONDON 5W      N/A         74  34  23  NW7     29.81F
#FOSSIL SCHOOL  N/A         66  51  58  CALM    29.94S
#HEPPNER EOC    N/A         75  42  31  W6      29.66F
#HEPPNER 4NE    N/A         72  41  33  W7      29.73F
#LEXINGTON 2SE  N/A         80  46  30  N13     29.74F
#OLEX 4N        N/A         78  48  35  W6      29.75F
#RUGGS 5NE      N/A         78  44  30  N7      30.01S
#RUGGS 2SW      N/A         75  41  29  N8      29.74F

$$

ORZ502-503-020010-
BLUE MOUNTAINS

CITY            SKY/WX      TMP DP  RH  WIND    PRES   REMARKS
MEACHAM         SUNNY       76  41  28  MISG    29.85F
#HEPPNER 15SE   N/A         70  41  35  NW5     29.77F
#LONG CREEK HS  N/A         79  22  12  CALM    29.77F
#PIKES PEAK     N/A         68  41  37  SW9     27.99S
#TOLLGATE       N/A         67  39  36  SE2     29.79F
#TROY SCHOOL    N/A         88  39  18  NW6     29.49F
#UKIAH          N/A         81  29  15  SE6     29.75F
#WESTON 4E      N/A         74  42  32  SW2     29.69F
$$

ORZ505-020010-
JOHN DAY BASIN

CITY            SKY/WX      TMP DP  RH  WIND    PRES   REMARKS
JOHN DAY        SUNNY       85  21   9  NW10    29.81F
#JOHN DAY KJDY  N/A         86  82  88  SW2     30.03S
#MITCHELL       N/A         82  45  27  CALM    29.98S
#MITCHELL 8NW   N/A         76  38  25  NE7     29.90F
#MONUMENT HS    N/A         85  30  14  W1      29.75F
#MT. VERNON 5SE N/A         80  25  13  CALM    29.79F
#SPRAY SCHOOL   N/A         89  N/A N/A CALM    N/A
$$

ORZ506-020010-
OCHOCO AND JOHN DAY HIGHLANDS

CITY            SKY/WX      TMP DP  RH  WIND    PRES   REMARKS
#PAULINA SCHOOL N/A         84  28  13  S1      29.80
#PINE MTN OBS   N/A         68  22  17  W2      N/A
#PRAIRIE CITY   N/A         87  30  13  SW1     29.54F
#SENECA         N/A         78  N/A N/A N9      N/A
$$

ORZ049-020010-
GRANDE RONDE VALLEY

CITY            SKY/WX      TMP DP  RH  WIND    PRES   REMARKS
LA GRANDE       SUNNY       82  43  25  NW8     29.75F
#COVE           N/A         82  51  34  N1      29.79F
#COVE SCHOOL    N/A         82  47  29  CALM    29.80F
#ELGIN 3N       N/A         82  36  19  S6      29.76F
#ELGIN 1E       N/A         85  41  21  CALM    N/A
#ISLAND CITY 4N N/A         71  58  64  W1      29.85S
#LA GRANDE ELEM N/A         82  43  25  E1      29.79F
#UNION 1S       N/A         82  47  29  W2      29.57F
$$

ORZ050-020010-
WALLOWA COUNTY

CITY            SKY/WX      TMP DP  RH  WIND    PRES   REMARKS
#ENTERPRISE HS  N/A         79  45  30  NW5     29.82F
#IMNAHA SCHOOL  N/A         88  44  22  N6      29.69F
#IMNAHA 10S     N/A         87  37  17  SW8     29.76F
#JOSEPH 3N      N/A         77  38  24  N3      29.86F
#JOSEPH 3W      N/A         76  38  25  N3      29.73F
#LOSTINE        N/A         80  41  25  CALM    29.50F
#MT HOWARD 8000 N/A         62  31  31  SW7     30.11R
#PROMISE 1S     N/A         77  38  24  E9      29.76F
#WALLOWA SCHOOL N/A         81  40  23  NW1     29.75F



$$



USA.gov is the U.S. government's official web portal to all federal, state and local government web resources and services.